#timestamp,LO_Frequency,Hit,Temp,Hum 
1478221215.2,286047150.8,N,0.0,0.0
1478221235.0,286047151.6,N,0.0,0.0
1478221235.9,286047151.6,N,0.0,0.0
1478221255.8,286047151.2,N,0.0,0.0
1478221275.6,286047149.8,N,0.0,0.0
1478221295.4,286047148.7,N,0.0,0.0
1478221315.3,286047149.9,N,0.0,0.0
1478221335.1,286047148.8,N,0.0,0.0
1478221355.9,286047149.2,N,0.0,0.0
1478221375.7,286047149.6,N,0.0,0.0
1478221395.5,286047148.8,N,0.0,0.0
1478221415.4,286047150.9,N,0.0,0.0
1478221435.2,286047148.5,N,0.0,0.0
1478221455.0,286047149.3,N,0.0,0.0
1478221455.9,286047149.3,N,0.0,0.0
1478221475.8,286047149.6,N,0.0,0.0
1478221495.6,286047148.1,N,0.0,0.0
1478221515.4,286047145.7,N,0.0,0.0
1478221535.3,286047148.3,N,0.0,0.0
1478221555.1,286047146.9,N,0.0,0.0
1478221575.8,286047148.9,N,0.0,0.0
1478221595.7,286047151.3,N,0.0,0.0
1478221615.5,286047153.2,N,0.0,0.0
1478221635.3,286047152.4,N,0.0,0.0
1478221655.2,286047152.3,N,0.0,0.0
1478221675.0,286047153.2,N,0.0,0.0
1478221675.9,286047153.2,N,0.0,0.0
1478221695.8,286047152.8,N,0.0,0.0
1478221715.6,286047152.0,N,0.0,0.0
1478221735.4,286047150.5,N,0.0,0.0
1478221755.3,286047152.6,N,0.0,0.0
1478221775.1,286047148.5,N,0.0,0.0
1478221776.0,286047148.5,N,0.0,0.0
1478221795.8,286047149.5,N,0.0,0.0
1478221815.7,286047151.5,N,0.0,0.0
1478221835.5,286047150.8,N,0.0,0.0
1478221855.3,286047151.1,N,0.0,0.0
1478221875.2,286047150.7,N,0.0,0.0
1478221895.0,286047150.3,N,0.0,0.0
1478221895.9,286047150.3,N,0.0,0.0
1478221915.8,286047151.4,N,0.0,0.0
1478221935.6,286047149.0,N,0.0,0.0
1478221955.4,286047150.7,N,0.0,0.0
1478221975.3,286047151.5,N,0.0,0.0
1478221995.1,286047152.3,N,0.0,0.0
1478221996.0,286047152.3,N,0.0,0.0
1478222015.8,286047152.0,N,0.0,0.0
1478222035.7,286047152.3,N,0.0,0.0
1478222055.5,286047152.4,N,0.0,0.0
1478222075.3,286047152.4,N,0.0,0.0
1478222095.2,286047150.1,N,0.0,0.0
1478222115.0,286047151.7,N,0.0,0.0
1478222115.9,286047151.7,N,0.0,0.0
1478222135.7,286047154.2,N,0.0,0.0
1478222155.6,286047154.6,N,0.0,0.0
1478222175.4,286047152.4,N,0.0,0.0
1478222195.3,286047154.1,N,0.0,0.0
1478222215.1,286047153.8,N,0.0,0.0
1478222216.0,286047153.8,N,0.0,0.0
1478222235.8,286047153.6,N,0.0,0.0
1478222255.7,286047153.5,N,0.0,0.0
1478222275.5,286047152.9,N,0.0,0.0
1478222295.3,286047152.9,N,0.0,0.0
1478222315.2,286047151.8,N,0.0,0.0
1478222335.9,286047152.3,N,0.0,0.0
1478222355.7,286047153.4,N,0.0,0.0
1478222375.6,286047155.2,N,0.0,0.0
1478222395.4,286047155.8,N,0.0,0.0
1478222415.2,286047155.7,N,0.0,0.0
1478222435.1,286047156.4,N,0.0,0.0
1478222436.0,286047156.4,N,0.0,0.0
1478222455.8,286047156.1,N,0.0,0.0
1478222475.7,286047152.0,N,0.0,0.0
1478222495.5,286047152.5,N,0.0,0.0
1478222515.3,286047154.3,N,0.0,0.0
1478222535.2,286047152.8,N,0.0,0.0
1478222555.9,286047156.4,N,0.0,0.0
1478222575.7,286047156.2,N,0.0,0.0
1478222595.6,286047153.5,N,0.0,0.0
1478222615.4,286047153.8,N,0.0,0.0
1478222635.2,286047156.4,N,0.0,0.0
1478222655.1,286047153.5,N,0.0,0.0
1478222656.0,286047153.5,N,0.0,0.0
1478222675.8,286047154.9,N,0.0,0.0
1478222695.6,286047156.4,N,0.0,0.0
1478222715.5,286047153.3,N,0.0,0.0
1478222735.3,286047152.5,N,0.0,0.0
1478222755.1,286047154.3,N,0.0,0.0
1478222775.9,286047152.6,N,0.0,0.0
1478222795.7,286047152.5,N,0.0,0.0
1478222815.6,286047153.3,N,0.0,0.0
1478222835.4,286047152.2,N,0.0,0.0
1478222855.2,286047155.2,N,0.0,0.0
1478222875.1,286047154.9,N,0.0,0.0
1478222876.0,286047154.9,N,0.0,0.0
1478222895.8,286047154.0,N,0.0,0.0
1478222915.6,286047153.3,N,0.0,0.0
1478222935.5,286047155.4,N,0.0,0.0
1478222955.3,286047153.6,N,0.0,0.0
1478222975.1,286047157.6,N,0.0,0.0
1478222995.9,286047157.3,N,0.0,0.0
1478223015.7,286047156.9,N,0.0,0.0
1478223035.5,286047159.2,N,0.0,0.0
1478223055.4,286047159.0,N,0.0,0.0
1478223075.2,286047158.7,N,0.0,0.0
1478223095.0,286047159.0,N,0.0,0.0
1478223096.0,286047159.0,N,0.0,0.0
1478223115.8,286047159.3,N,0.0,0.0
1478223135.6,286047158.9,N,0.0,0.0
1478223155.5,286047157.0,N,0.0,0.0
1478223175.3,286047157.2,N,0.0,0.0
1478223195.1,286047156.9,N,0.0,0.0
1478223215.9,286047159.0,N,0.0,0.0
1478223235.7,286047156.5,N,0.0,0.0
1478223255.5,286047155.0,N,0.0,0.0
1478223275.4,286047156.9,N,0.0,0.0
1478223295.2,286047156.5,N,0.0,0.0
1478223315.0,286047157.8,N,0.0,0.0
1478223315.9,286047157.8,N,0.0,0.0
1478223335.8,286047156.1,N,0.0,0.0
1478223355.6,286047155.5,N,0.0,0.0
1478223375.4,286047155.6,N,0.0,0.0
1478223395.3,286047156.1,N,0.0,0.0
1478223415.1,286047154.6,N,0.0,0.0
1478223435.9,286047153.4,N,0.0,0.0
1478223455.7,286047156.4,N,0.0,0.0
1478223475.5,286047154.7,N,0.0,0.0
1478223495.4,286047153.7,N,0.0,0.0
1478223515.2,286047156.3,N,0.0,0.0
1478223535.0,286047157.5,N,0.0,0.0
1478223535.9,286047157.5,N,0.0,0.0
1478223555.8,286047155.7,N,0.0,0.0
1478223575.6,286047157.9,N,0.0,0.0
1478223595.4,286047157.8,N,0.0,0.0
1478223615.3,286047157.9,N,0.0,0.0
1478223635.1,286047157.3,N,0.0,0.0
1478223655.8,286047156.7,N,0.0,0.0
1478223675.7,286047155.8,N,0.0,0.0
1478223695.5,286047155.1,N,0.0,0.0
1478223715.3,286047157.8,N,0.0,0.0
1478223735.2,286047160.5,N,0.0,0.0
1478223755.0,286047153.8,N,0.0,0.0
1478223755.9,286047153.8,N,0.0,0.0
1478223775.8,286047157.5,N,0.0,0.0
1478223795.6,286047160.8,N,0.0,0.0
1478223815.4,286047152.7,N,0.0,0.0
1478223835.3,286047157.8,N,0.0,0.0
1478223855.1,286047155.6,N,0.0,0.0
1478223856.0,286047155.6,N,0.0,0.0
1478223875.8,286047156.9,N,0.0,0.0
1478223895.7,286047156.3,N,0.0,0.0
1478223915.5,286047155.8,N,0.0,0.0
1478223935.3,286047151.2,N,0.0,0.0
1478223955.2,286047155.1,N,0.0,0.0
1478223975.0,286047153.6,N,0.0,0.0
1478223975.9,286047153.6,N,0.0,0.0
1478223995.8,286047154.3,N,0.0,0.0
1478224015.6,286047153.4,N,0.0,0.0
1478224035.4,286047153.5,N,0.0,0.0
1478224055.3,286047155.8,N,0.0,0.0
1478224075.1,286047155.7,N,0.0,0.0
1478224076.0,286047155.7,N,0.0,0.0
1478224095.8,286047155.4,N,0.0,0.0
1478224115.7,286047155.2,N,0.0,0.0
1478224135.5,286047155.8,N,0.0,0.0
1478224155.3,286047153.7,N,0.0,0.0
1478224175.2,286047153.8,N,0.0,0.0
1478224195.0,286047154.6,N,0.0,0.0
1478224195.9,286047154.6,N,0.0,0.0
1478224215.7,286047156.4,N,0.0,0.0
1478224235.6,286047155.8,N,0.0,0.0
1478224255.4,286047156.2,N,0.0,0.0
1478224275.3,286047153.8,N,0.0,0.0
1478224295.1,286047156.4,N,0.0,0.0
1478224296.0,286047156.4,N,0.0,0.0
1478224315.8,286047156.9,N,0.0,0.0
1478224335.7,286047156.7,N,0.0,0.0
1478224355.5,286047157.4,N,0.0,0.0
1478224375.3,286047157.6,N,0.0,0.0
1478224395.2,286047157.7,N,0.0,0.0
1478224415.9,286047155.8,N,0.0,0.0
1478224435.7,286047155.1,N,0.0,0.0
1478224455.6,286047154.9,N,0.0,0.0
1478224475.4,286047155.2,N,0.0,0.0
1478224495.2,286047178.7,N,0.0,0.0
1478224515.1,286047177.8,N,0.0,0.0
1478224516.0,286047177.8,N,0.0,0.0
1478224535.8,286047153.8,N,0.0,0.0
1478224555.7,286047155.1,N,0.0,0.0
1478224575.5,286047149.2,N,0.0,0.0
1478224595.3,286047149.8,N,0.0,0.0
1478224615.2,286047156.3,N,0.0,0.0
1478224635.9,286047157.6,N,0.0,0.0
1478224655.7,286047155.7,N,0.0,0.0
1478224675.6,286047155.6,N,0.0,0.0
1478224695.4,286047153.3,N,0.0,0.0
1478224715.2,286047155.0,N,0.0,0.0
1478224735.1,286047158.8,N,0.0,0.0
1478224736.0,286047158.8,N,0.0,0.0
1478224755.8,286047161.2,N,0.0,0.0
1478224775.6,286047156.5,N,0.0,0.0
1478224795.5,286047137.2,N,0.0,0.0
